Weather History for KCPK - January, 2014

Change the Weather History Date:

Friday, January 3, 2014

  Actual Average (KORF) Record (KORF)
Temperature  
Mean Temperature 32 °F 41 °F  
Max Temperature 42 °F 48 °F 76 °F (2004)
Min Temperature 23 °F 33 °F 11 °F (1918)
Degree Days  
Heating Degree Days 32 24  
Month to date heating degree days 72  
Since 1 July heating degree days 1251  
Cooling Degree Days 0 0  
Month to date cooling degree days 0  
Year to date cooling degree days 0  
Moisture  
Dew Point 16 °F    
Average Humidity 56    
Maximum Humidity 100    
Minimum Humidity 34    
Precipitation  
Precipitation 0.01 in 0.10 in 2.30 in (1944)
Month to date precipitation 0.30  
Year to date precipitation 0.30  
Snow  
Snow 0.00 in 0.10 in 6.60 in (2002)
Month to date snowfall 0.2  
Since 1 July snowfall 1.4  
Snow Depth -    
Sea Level Pressure  
Sea Level Pressure 30.13 in    
Wind  
Wind Speed 14 mph (NW)    
Max Wind Speed 25 mph    
Max Gust Speed 37 mph    
Visibility 10 miles    
Events Rain    
T = Trace of Precipitation, MM = Missing Value Source: NWS Daily Summary

Daily Weather History Graph

Daily Weather History Graph

Search for Another Location

Airport or City:

Trip Planner

Search our weather history database for the weather conditions in past years. The results will help you decide how hot, cold, wet, or windy it might be!

Date:

Astronomy

Jan. 03, 2014 Rise Set
Actual Time 7:17 AM EST 5:01 PM EST
Civil Twilight 6:49 AM EST 5:30 PM EST
Nautical Twilight 6:17 AM EST 6:02 PM EST
Astronomical Twilight 5:45 AM EST 6:34 PM EST
Moon 8:46 AM EST (1/3) 8:03 PM EST (1/3)
Length of Visible Light 10h 41m
Length of Day
9h 43m
Waxing Crescent, 8% of the Moon is Illuminated
Jan 3
Waxing Crescent
Jan 7
First Quarter
Jan 15
Full
Jan 24
Last Quarter
Jan 30
New

Hourly Weather History & Observations

Time (EST) Temp. Windchill Dew Point Humidity Pressure Visibility Wind Dir Wind Speed Gust Speed Precip Events Conditions
12:15 AM 42.8 °F 39.3 °F 42.8 °F 100% 29.52 in 10.0 mi West 5.8 mph - 0.01 in   Overcast
12:35 AM 42.8 °F 35.8 °F 42.8 °F 100% 29.52 in 10.0 mi WNW 13.8 mph 18.4 mph 0.01 in   Overcast
12:55 AM 42.8 °F 34.8 °F 42.8 °F 100% 29.55 in 7.0 mi West 17.3 mph 21.9 mph N/A Rain Light Rain
1:15 AM 42.8 °F 35.1 °F 41.0 °F 93% 29.56 in 10.0 mi West 16.1 mph - 0.01 in Rain Light Rain
1:35 AM 41.0 °F 32.2 °F 41.0 °F 100% 29.58 in 10.0 mi WNW 18.4 mph 25.3 mph 0.01 in   Drizzle
1:55 AM 41.0 °F 32.8 °F 39.2 °F 93% 29.59 in 10.0 mi WNW 16.1 mph 27.6 mph N/A   Light Drizzle
2:15 AM 39.2 °F 31.6 °F 37.4 °F 93% 29.61 in 10.0 mi WNW 12.7 mph 25.3 mph N/A Rain Light Rain
2:35 AM 39.2 °F 31.2 °F 37.4 °F 93% 29.63 in 10.0 mi WNW 13.8 mph 20.7 mph N/A   Overcast
2:55 AM 39.2 °F 30.8 °F 35.6 °F 87% 29.65 in 10.0 mi NW 15.0 mph 23.0 mph N/A   Overcast
3:15 AM 39.2 °F 31.2 °F 33.8 °F 81% 29.67 in 10.0 mi NW 13.8 mph 25.3 mph N/A   Overcast
3:35 AM 37.4 °F 28.9 °F 33.8 °F 87% 29.69 in 10.0 mi WNW 13.8 mph 25.3 mph N/A   Overcast
3:55 AM 37.4 °F 28.2 °F 32.0 °F 81% 29.70 in 10.0 mi NW 16.1 mph 21.9 mph N/A   Overcast
4:15 AM 37.4 °F 28.9 °F 30.2 °F 75% 29.72 in 10.0 mi NW 13.8 mph 21.9 mph N/A   Overcast
4:35 AM 37.4 °F 28.9 °F 30.2 °F 75% 29.75 in 10.0 mi NW 13.8 mph 33.4 mph N/A   Overcast
4:55 AM 37.4 °F 28.5 °F 30.2 °F 75% 29.77 in 10.0 mi NW 15.0 mph 31.1 mph N/A   Overcast
5:15 AM 35.6 °F 25.5 °F 28.4 °F 75% 29.80 in 10.0 mi NW 17.3 mph 28.8 mph N/A   Overcast
5:35 AM 35.6 °F 25.5 °F 28.4 °F 75% 29.83 in 10.0 mi NW 17.3 mph 27.6 mph N/A   Overcast
5:55 AM 33.8 °F 22.2 °F 26.6 °F 75% 29.85 in 10.0 mi NNW 20.7 mph 31.1 mph N/A   Unknown
5:56 AM 33.8 °F 21.0 °F 26.6 °F 75% 29.85 in 10.0 mi NNW 25.3 mph 33.4 mph N/A   Unknown
6:15 AM 33.8 °F 23.5 °F 24.8 °F 70% 29.88 in 10.0 mi NW 16.1 mph 36.8 mph N/A   Overcast
6:35 AM 32.0 °F 20.5 °F 23.0 °F 69% 29.91 in 10.0 mi NW 18.4 mph 26.5 mph N/A   Overcast
6:55 AM 30.2 °F 18.1 °F 19.4 °F 64% 29.93 in 10.0 mi NW 18.4 mph 27.6 mph N/A   Overcast
7:15 AM 30.2 °F 16.2 °F 15.8 °F 55% 29.97 in 10.0 mi NW 25.3 mph 36.8 mph N/A   Overcast
7:35 AM 28.4 °F 15.8 °F 14.0 °F 55% 30.01 in 10.0 mi NW 18.4 mph 31.1 mph N/A   Mostly Cloudy
7:55 AM 28.4 °F 16.2 °F 12.2 °F 51% 30.04 in 10.0 mi NNW 17.3 mph 33.4 mph N/A   Scattered Clouds
8:15 AM 28.4 °F 15.4 °F 14.0 °F 55% 30.06 in 10.0 mi NNW 19.6 mph 27.6 mph N/A   Clear
8:35 AM 26.6 °F 14.3 °F 12.2 °F 55% 30.08 in 10.0 mi NNW 16.1 mph 26.5 mph N/A   Scattered Clouds
8:55 AM 26.6 °F 12.7 °F 12.2 °F 55% 30.11 in 10.0 mi NW 20.7 mph 29.9 mph N/A   Scattered Clouds
9:15 AM 26.6 °F 13.8 °F 12.2 °F 55% 30.13 in 10.0 mi NW 17.3 mph 32.2 mph N/A   Scattered Clouds
9:35 AM 26.6 °F 13.8 °F 12.2 °F 55% 30.15 in 10.0 mi NW 17.3 mph 31.1 mph N/A   Clear
9:55 AM 26.6 °F 13.1 °F 12.2 °F 55% 30.17 in 10.0 mi NW 19.6 mph 32.2 mph N/A   Clear
10:15 AM 26.6 °F 13.1 °F 12.2 °F 55% 30.18 in 10.0 mi NW 19.6 mph 28.8 mph N/A   Clear
10:35 AM 26.6 °F 14.7 °F 10.4 °F 51% 30.19 in 10.0 mi NW 15.0 mph 28.8 mph N/A   Clear
10:55 AM 28.4 °F 18.0 °F 10.4 °F 47% 30.20 in 10.0 mi NW 12.7 mph 29.9 mph N/A   Clear
11:15 AM 28.4 °F 15.1 °F 10.4 °F 47% 30.19 in 10.0 mi NW 20.7 mph 29.9 mph N/A   Clear
11:35 AM 28.4 °F 16.2 °F 12.2 °F 51% 30.20 in 10.0 mi NW 17.3 mph 28.8 mph N/A   Clear
11:55 AM 28.4 °F 14.4 °F 12.2 °F 51% 30.21 in 10.0 mi NW 23.0 mph 31.1 mph N/A   Clear
12:15 PM 28.4 °F 15.1 °F 10.4 °F 47% 30.21 in 10.0 mi NW 20.7 mph 35.7 mph N/A   Clear
12:35 PM 30.2 °F 18.5 °F 10.4 °F 44% 30.22 in 10.0 mi NW 17.3 mph 24.2 mph N/A   Clear
12:55 PM 30.2 °F 17.1 °F 8.6 °F 40% 30.22 in 10.0 mi NNW 21.9 mph 31.1 mph N/A   Clear
1:15 PM 30.2 °F 17.8 °F 8.6 °F 40% 30.23 in 10.0 mi NW 19.6 mph 26.5 mph N/A   Clear
1:35 PM 30.2 °F 19.3 °F 8.6 °F 40% 30.24 in 10.0 mi NNW 15.0 mph 25.3 mph N/A   Clear
1:55 PM 30.2 °F 19.8 °F 8.6 °F 40% 30.26 in 10.0 mi NW 13.8 mph 23.0 mph N/A   Clear
2:15 PM 30.2 °F 19.8 °F 8.6 °F 40% 30.27 in 10.0 mi NW 13.8 mph 21.9 mph N/A   Clear
2:35 PM 30.2 °F 19.3 °F 6.8 °F 37% 30.29 in 10.0 mi NNW 15.0 mph 23.0 mph N/A   Clear
2:55 PM 30.2 °F 19.3 °F 6.8 °F 37% 30.31 in 10.0 mi NNW 15.0 mph 24.2 mph N/A   Clear
3:15 PM 30.2 °F 20.8 °F 6.8 °F 37% 30.33 in 10.0 mi NNW 11.5 mph 20.7 mph N/A   Clear
3:35 PM 30.2 °F 19.8 °F 6.8 °F 37% 30.34 in 10.0 mi NW 13.8 mph 19.6 mph N/A   Clear
3:55 PM 30.2 °F 21.3 °F 6.8 °F 37% 30.34 in 10.0 mi NNW 10.4 mph 18.4 mph N/A   Clear
4:15 PM 30.2 °F 21.9 °F 5.0 °F 34% 30.35 in 10.0 mi NNW 9.2 mph 18.4 mph N/A   Clear
4:35 PM 30.2 °F 20.8 °F 5.0 °F 34% 30.36 in 10.0 mi NW 11.5 mph 18.4 mph N/A   Clear
4:55 PM 28.4 °F 19.7 °F 6.8 °F 40% 30.36 in 7.0 mi NNW 9.2 mph 17.3 mph N/A   Clear
5:15 PM 28.4 °F 21.2 °F 6.8 °F 40% 30.37 in 10.0 mi NW 6.9 mph - N/A   Clear
5:35 PM 28.4 °F 19.1 °F 5.0 °F 37% 30.39 in 10.0 mi NW 10.4 mph 16.1 mph N/A   Clear
5:55 PM 28.4 °F 21.2 °F 5.0 °F 37% 30.40 in 10.0 mi NW 6.9 mph - N/A   Clear
6:15 PM 28.4 °F 22.2 °F 6.8 °F 40% 30.41 in 10.0 mi NNW 5.8 mph - N/A   Clear
6:35 PM 28.4 °F 22.2 °F 5.0 °F 37% 30.42 in 10.0 mi NNW 5.8 mph - N/A   Clear
6:55 PM 26.6 °F 21.2 °F 5.0 °F 40% 30.44 in 10.0 mi North 4.6 mph - N/A   Clear
7:15 PM 26.6 °F 21.2 °F 5.0 °F 40% 30.45 in 10.0 mi NNW 4.6 mph - N/A   Clear
7:35 PM 26.6 °F 20.0 °F 5.0 °F 40% 30.45 in 10.0 mi NNW 5.8 mph - N/A   Clear
7:55 PM 26.6 °F 17.5 °F 3.2 °F 37% 30.46 in 10.0 mi NNW 9.2 mph - N/A   Clear
8:15 PM 26.6 °F 21.2 °F 1.4 °F 34% 30.48 in 10.0 mi North 4.6 mph - N/A   Clear
8:35 PM 26.6 °F 18.2 °F 1.4 °F 34% 30.48 in 10.0 mi NNW 8.1 mph - N/A   Clear
8:55 PM 26.6 °F 18.2 °F 1.4 °F 34% 30.49 in 10.0 mi NNW 8.1 mph - N/A   Clear
9:15 PM 26.6 °F 19.1 °F 3.2 °F 37% 30.49 in 10.0 mi North 6.9 mph - N/A   Clear
9:35 PM 24.8 °F 16.9 °F 3.2 °F 40% 30.50 in 10.0 mi NNW 6.9 mph - N/A   Clear
9:55 PM 24.8 °F 17.9 °F 3.2 °F 40% 30.50 in 10.0 mi NNW 5.8 mph - N/A   Clear
10:15 PM 24.8 °F 17.9 °F 5.0 °F 43% 30.50 in 10.0 mi NNW 5.8 mph - N/A   Clear
10:35 PM 24.8 °F - 6.8 °F 46% 30.50 in 10.0 mi Calm Calm - N/A   Clear
10:55 PM 24.8 °F - 6.8 °F 46% 30.50 in 10.0 mi Calm Calm - N/A   Clear
11:15 PM 24.8 °F - 8.6 °F 50% 30.50 in 10.0 mi Calm Calm - N/A   Clear
11:35 PM 23.0 °F 18.4 °F 8.6 °F 54% 30.50 in 10.0 mi NW 3.5 mph - N/A   Clear
11:55 PM 23.0 °F 18.4 °F 10.4 °F 59% 30.50 in 10.0 mi NW 3.5 mph - N/A   Clear